• en Belgique
  • Liste des pays
  • À 7 jours
  • Température de l'eau
  • Carte satellitaire
  • Carte météo
  • Widgets météo
  • user-avatar
    Se connecter

    Météo par heure à Vitebsk

    Ce jour, 25 Février, Dimanche

    Heure Température Précipitation Vent Pression Humidité
    00:00 -18°C° 0 mm 2 m/s 755 mmHg 96%
    01:00 -19°C° 0 mm 2 m/s 755 mmHg 97%
    02:00 -18°C° 0 mm 2 m/s 755 mmHg 97%
    03:00 -18°C° 0 mm 2 m/s 755 mmHg 97%
    04:00 -19°C° 0 mm 2 m/s 755 mmHg 97%
    05:00 -19°C° 0 mm 2 m/s 755 mmHg 97%
    06:00 -19°C° 0 mm 2 m/s 755 mmHg 96%
    07:00 -18°C° 0 mm 2 m/s 755 mmHg 96%
    08:00 -18°C° 0 mm 2 m/s 755 mmHg 95%
    09:00 -17°C° 0 mm 2 m/s 755 mmHg 92%
    10:00 -16°C° 0 mm 2 m/s 755 mmHg 89%
    11:00 -16°C° 0 mm 2 m/s 755 mmHg 86%
    12:00 -15°C° 0 mm 2 m/s 755 mmHg 84%
    13:00 -15°C° 0 mm 2 m/s 755 mmHg 82%
    14:00 -13°C° 0 mm 2 m/s 755 mmHg 77%
    15:00 -14°C° 0 mm 2 m/s 755 mmHg 80%
    16:00 -14°C° 0 mm 2 m/s 754 mmHg 83%
    17:00 -15°C° 0 mm 2 m/s 754 mmHg 86%
    18:00 -16°C° 0 mm 2 m/s 754 mmHg 88%
    19:00 -17°C° 0 mm 2 m/s 754 mmHg 91%
    20:00 -18°C° 0 mm 2 m/s 754 mmHg 93%
    21:00 -19°C° 0 mm 2 m/s 754 mmHg 94%
    22:00 -20°C° 0 mm 2 m/s 754 mmHg 95%
    23:00 -20°C° 0 mm 2 m/s 754 mmHg 96%

    Demain, 26 Février, Lundi

    Heure Température Précipitation Vent Pression Humidité
    00:00 -18°C° 0 mm 1 m/s 754 mmHg 96%
    01:00 -18°C° 0 mm 1 m/s 754 mmHg 97%
    02:00 -19°C° 0 mm 1 m/s 754 mmHg 97%
    03:00 -19°C° 0 mm 1 m/s 754 mmHg 97%
    04:00 -19°C° 0 mm 1 m/s 754 mmHg 97%
    05:00 -19°C° 0 mm 1 m/s 754 mmHg 97%
    06:00 -19°C° 0 mm 1 m/s 754 mmHg 97%
    07:00 -19°C° 0 mm 1 m/s 754 mmHg 97%
    08:00 -19°C° 0 mm 1 m/s 754 mmHg 96%
    09:00 -17°C° 0 mm 1 m/s 754 mmHg 92%
    10:00 -16°C° 0 mm 1 m/s 754 mmHg 87%
    11:00 -15°C° 0 mm 1 m/s 754 mmHg 83%
    12:00 -14°C° 0 mm 1 m/s 754 mmHg 80%
    13:00 -13°C° 0 mm 1 m/s 754 mmHg 78%
    14:00 -13°C° 0 mm 1 m/s 754 mmHg 75%
    15:00 -14°C° 0 mm 0 m/s 754 mmHg 78%
    16:00 -14°C° 0 mm 0 m/s 754 mmHg 82%
    17:00 -15°C° 0 mm 0 m/s 753 mmHg 85%
    18:00 -16°C° 0 mm 1 m/s 754 mmHg 87%
    19:00 -17°C° 0 mm 1 m/s 754 mmHg 89%
    20:00 -18°C° 0 mm 1 m/s 754 mmHg 91%
    21:00 -18°C° 0 mm 1 m/s 754 mmHg 92%
    22:00 -19°C° 0 mm 1 m/s 754 mmHg 93%
    23:00 -19°C° 0 mm 1 m/s 754 mmHg 94%

    Après-demain, 27 Février, Mardi

    Heure Température Précipitation Vent Pression Humidité
    00:00 -20°C° 0 mm 1 m/s 755 mmHg 95%
    01:00 -20°C° 0 mm 1 m/s 755 mmHg 95%
    02:00 -24°C° 0 mm 2 m/s 755 mmHg 95%
    03:00 -24°C° 0 mm 2 m/s 756 mmHg 96%
    04:00 -24°C° 0 mm 2 m/s 756 mmHg 96%
    05:00 -25°C° 0 mm 2 m/s 756 mmHg 96%
    06:00 -25°C° 0 mm 2 m/s 756 mmHg 95%
    07:00 -25°C° 0 mm 2 m/s 757 mmHg 95%
    08:00 -25°C° 0 mm 2 m/s 757 mmHg 95%
    09:00 -24°C° 0 mm 3 m/s 758 mmHg 92%
    10:00 -23°C° 0 mm 3 m/s 758 mmHg 89%
    11:00 -21°C° 0 mm 3 m/s 759 mmHg 87%
    12:00 -19°C° 0 mm 3 m/s 759 mmHg 85%
    13:00 -18°C° 0 mm 3 m/s 759 mmHg 83%
    14:00 -18°C° 0 mm 4 m/s 759 mmHg 81%
    15:00 -19°C° 0 mm 4 m/s 759 mmHg 82%
    16:00 -19°C° 0 mm 4 m/s 759 mmHg 84%
    17:00 -19°C° 0 mm 4 m/s 760 mmHg 85%
    18:00 -20°C° 0 mm 4 m/s 760 mmHg 86%
    19:00 -22°C° 0 mm 4 m/s 760 mmHg 88%
    20:00 -22°C° 0 mm 4 m/s 761 mmHg 89%
    21:00 -22°C° 0 mm 4 m/s 761 mmHg 89%
    22:00 -23°C° 0 mm 4 m/s 761 mmHg 90%
    23:00 -23°C° 0 mm 4 m/s 761 mmHg 90%

    28 Février, Mercredi

    Heure Température Précipitation Vent Pression Humidité
    00:00 -23°C° 0 mm 4 m/s 761 mmHg 90%
    01:00 -25°C° 0 mm 5 m/s 761 mmHg 90%
    02:00 -25°C° 0 mm 5 m/s 761 mmHg 90%
    03:00 -25°C° 0 mm 5 m/s 761 mmHg 90%
    04:00 -25°C° 0 mm 5 m/s 761 mmHg 89%
    05:00 -26°C° 0 mm 5 m/s 761 mmHg 89%
    06:00 -25°C° 0 mm 5 m/s 761 mmHg 88%
    07:00 -25°C° 0 mm 5 m/s 761 mmHg 87%
    08:00 -26°C° 0 mm 6 m/s 761 mmHg 85%
    09:00 -24°C° 0 mm 6 m/s 761 mmHg 83%
    10:00 -23°C° 0 mm 6 m/s 761 mmHg 81%
    11:00 -22°C° 0 mm 6 m/s 760 mmHg 78%
    12:00 -21°C° 0 mm 6 m/s 760 mmHg 77%
    13:00 -20°C° 0 mm 6 m/s 759 mmHg 76%
    14:00 -18°C° 0 mm 6 m/s 759 mmHg 75%
    15:00 -18°C° 0 mm 6 m/s 759 mmHg 76%
    16:00 -18°C° 0 mm 6 m/s 758 mmHg 77%
    17:00 -18°C° 0 mm 6 m/s 758 mmHg 78%
    18:00 -20°C° 0 mm 6 m/s 758 mmHg 80%
    19:00 -21°C° 0 mm 6 m/s 758 mmHg 82%
    20:00 -21°C° 0 mm 6 m/s 758 mmHg 84%
    21:00 -21°C° 0 mm 6 m/s 758 mmHg 85%
    22:00 -21°C° 0 mm 5 m/s 758 mmHg 86%
    23:00 -21°C° 0 mm 5 m/s 758 mmHg 87%

    1 Mars, Jeudi

    Heure Température Précipitation Vent Pression Humidité
    00:00 -21°C° 0 mm 5 m/s 758 mmHg 87%
    01:00 -21°C° 0 mm 5 m/s 758 mmHg 88%
    02:00 -21°C° 0 mm 5 m/s 757 mmHg 89%
    03:00 -21°C° 0,1 mm 5 m/s 757 mmHg 89%
    04:00 -21°C° 0,1 mm 5 m/s 757 mmHg 89%
    05:00 -21°C° 0,1 mm 5 m/s 757 mmHg 90%
    06:00 -21°C° 0,1 mm 5 m/s 757 mmHg 89%
    07:00 -20°C° 0,1 mm 4 m/s 757 mmHg 89%
    08:00 -20°C° 0,1 mm 4 m/s 757 mmHg 89%
    09:00 -19°C° 0 mm 4 m/s 757 mmHg 87%
    10:00 -18°C° 0 mm 4 m/s 757 mmHg 86%
    11:00 -17°C° 0 mm 4 m/s 757 mmHg 85%
    12:00 -16°C° 0 mm 4 m/s 757 mmHg 85%
    13:00 -15°C° 0 mm 4 m/s 757 mmHg 85%
    14:00 -15°C° 0 mm 4 m/s 756 mmHg 85%
    15:00 -15°C° 0 mm 4 m/s 756 mmHg 86%
    16:00 -14°C° 0 mm 4 m/s 756 mmHg 87%
    17:00 -14°C° 0 mm 4 m/s 755 mmHg 88%
    18:00 -15°C° 0,1 mm 4 m/s 755 mmHg 89%
    19:00 -15°C° 0,1 mm 4 m/s 755 mmHg 90%
    20:00 -15°C° 0,1 mm 4 m/s 755 mmHg 90%
    21:00 -15°C° 0,2 mm 4 m/s 755 mmHg 90%
    22:00 -15°C° 0,2 mm 5 m/s 754 mmHg 90%
    23:00 -15°C° 0,2 mm 5 m/s 754 mmHg 89%

    2 Mars, Vendredi

    Heure Température Précipitation Vent Pression Humidité
    00:00 -15°C° 0,2 mm 5 m/s 754 mmHg 89%
    01:00 -15°C° 0,2 mm 5 m/s 753 mmHg 89%
    02:00 -15°C° 0,2 mm 5 m/s 753 mmHg 89%
    03:00 -15°C° 0,1 mm 4 m/s 752 mmHg 89%
    04:00 -15°C° 0,1 mm 4 m/s 752 mmHg 88%
    05:00 -15°C° 0,1 mm 4 m/s 752 mmHg 87%
    06:00 -15°C° 0 mm 4 m/s 751 mmHg 87%
    07:00 -15°C° 0 mm 4 m/s 751 mmHg 86%
    08:00 -15°C° 0 mm 4 m/s 751 mmHg 86%
    09:00 -14°C° 0,1 mm 4 m/s 751 mmHg 85%
    10:00 -14°C° 0,1 mm 4 m/s 751 mmHg 84%
    11:00 -12°C° 0,1 mm 4 m/s 751 mmHg 83%
    12:00 -11°C° 0,1 mm 4 m/s 750 mmHg 83%
    13:00 -11°C° 0,1 mm 4 m/s 750 mmHg 84%
    14:00 -9°C° 0,1 mm 3 m/s 749 mmHg 84%
    15:00 -9°C° 0,1 mm 3 m/s 749 mmHg 86%
    16:00 -10°C° 0,1 mm 3 m/s 749 mmHg 88%
    17:00 -10°C° 0,1 mm 3 m/s 748 mmHg 90%
    18:00 -10°C° 0 mm 3 m/s 748 mmHg 91%
    19:00 -10°C° 0 mm 2 m/s 748 mmHg 92%
    20:00 -10°C° 0 mm 2 m/s 748 mmHg 94%
    21:00 -10°C° 0 mm 2 m/s 748 mmHg 94%
    22:00 -10°C° 0 mm 2 m/s 748 mmHg 94%
    23:00 -10°C° 0 mm 2 m/s 747 mmHg 94%
    Voir plus